sat.trackr.live / text

‹ back to catalog

STARLINK-34878

NORAD 65334 · 2025-189M

PAYLOAD ACTIVE UNKNOWN

§ Identity

Operator
Country
US
Launch date
2025-08-27
Launch site
AFETR
Launch vehicle
Mass (kg)
RCS (m²)

Purposes: comms

External: N2YO · Heavens-Above · Gunter

§ Orbital elements

Epoch: 2026-05-25T04:53:20.067072Z

Period
94.10 min
Inclination
53.1570°
Eccentricity
0.0001050
Mean motion
15.30208654 rev/d
Perigee alt
474.5 km
Apogee alt
475.9 km
Semi-major
6,853.3 km
B*
6.0852e-4
RAAN
211.1884°
Arg perigee
79.9710°
Mean anomaly
280.1409°
Rev number
4,282

§ Raw data

STARLINK-348781 65334U 25189M   26145.20370448  .00017711  00000+0  60852-3 0  99922 65334  53.1570 211.1884 0001050  79.9710 280.1409 15.30208654 42822

JSON: /api/v1/satellites/65334 · /tle

For live sub-satellite position, see the globe view (requires WebGL).

§ Visibility from observer

Set your observer location to see the next 7 days of passes ≥ 10°. The values pass through the URL so the page stays shareable.

No JS? Fill the form by hand. The geolocation button needs JavaScript.